GW2464 Weather Reports


Display with metric or nautical units.
time (UTC)temp
F
wind
direction
speed
MPH
gust
MPH
rain 1hr
in
rain 24hr
in
rain mn
in
humidity
%
barometer
mb
20260902061813 68 12 0.0 0.0 0.00 0.00 0.00 99 1019.6
20260902061309 68 73 0.0 1.0 0.00 0.00 0.00 99 1019.8
20260902060805 68 23 0.0 0.0 0.00 0.00 0.00 99 1019.8
20260902060301 68 18 0.0 0.0 0.00 0.00 0.00 99 1019.9
20260902055756 68 17 0.0 0.0 0.00 0.00 0.00 99 1019.8
20260902055252 68 17 0.0 0.0 0.00 0.00 0.00 99 1019.7
20260902054747 68 19 0.0 0.0 0.00 0.00 0.00 99 1019.7
20260902054242 68 10 0.0 0.0 0.00 0.00 0.00 99 1019.8
20260902053737 69 18 1.0 1.0 0.00 0.00 0.00 99 1019.9
20260902053236 69 14 0.0 0.0 0.00 0.00 0.00 99 1019.8
20260902052731 69 12 0.0 0.0 0.00 0.00 0.00 99 1019.7
20260902052227 69 26 0.0 0.0 0.00 0.00 0.00 99 1019.9
20260902051726 69 11 0.0 0.0 0.00 0.00 0.00 99 1020.1
20260902051220 69 11 0.0 0.0 0.00 0.00 0.00 99 1019.9
20260902050715 69 343 0.0 1.0 0.00 0.00 0.00 99 1019.8
20260902050210 69 17 0.0 0.0 0.00 0.00 0.00 99 1019.7
20260902045705 69 17 0.0 0.0 0.00 0.00 0.00 99 1019.3
20260902045201 69 28 1.0 1.0 0.00 0.00 0.00 99 1019.7
20260902044656 69 18 0.0 0.0 0.00 0.00 0.00 99 1019.8
20260902044152 69 15 1.0 1.0 0.00 0.00 0.00 99 1019.8
20260902043647 69 17 0.0 0.0 0.00 0.00 0.00 99 1019.9
20260902043142 69 24 0.0 0.0 0.00 0.00 0.00 99 1019.7
20260902042641 69 6 0.0 0.0 0.00 0.00 0.00 99 1019.8
20260902042137 69 28 0.0 0.0 0.00 0.00 0.00 99 1019.7
20260902041636 69 22 0.0 0.0 0.00 0.00 0.00 99 1019.9
20260902041131 69 16 0.0 0.0 0.00 0.00 0.00 99 1019.7
20260902040631 68 21 0.0 0.0 0.00 0.00 0.00 99 1019.7
20260902040126 68 23 0.0 0.0 0.00 0.00 0.00 99 1019.3
20260902035624 68 15 0.0 0.0 0.00 1.13 1.13 99 1019.5
20260902035120 68 19 0.0 0.0 0.00 1.13 1.13 99 1019.0
20260902034619 68 16 0.0 0.0 0.00 1.13 1.13 99 1019.5
20260902034113 68 17 0.0 0.0 0.00 1.13 1.13 99 1019.0
20260902033612 68 17 0.0 0.0 0.00 1.13 1.13 99 1019.2
20260902033108 68 17 0.0 0.0 0.00 1.13 1.13 99 1019.1
20260902032606 68 16 0.0 0.0 0.00 1.13 1.13 99 1019.1
20260902032101 68 9 0.0 0.0 0.00 1.13 1.13 99 1018.9
20260902031555 67 13 0.0 0.0 0.00 1.13 1.13 99 1019.0
20260902031051 67 13 0.0 0.0 0.00 1.13 1.13 99 1018.7
20260902030546 67 17 0.0 0.0 0.00 1.13 1.13 99 1018.6
20260902030045 67 11 0.0 0.0 0.00 1.13 1.13 99 1018.4
20260902025540 67 1 0.0 0.0 0.00 1.13 1.13 99 1018.2
20260902025035 68 17 0.0 0.0 0.00 1.13 1.13 99 1018.3
20260902024531 67 21 0.0 0.0 0.00 1.13 1.13 99 1018.2
20260902024031 67 16 0.0 0.0 0.00 1.13 1.13 99 1018.2
20260902023527 68 20 0.0 0.0 0.00 1.13 1.13 99 1018.2
20260902023021 67 23 0.0 0.0 0.00 1.13 1.13 99 1018.2
20260902022516 68 14 0.0 0.0 0.00 1.13 1.13 99 1018.3
20260902022012 68 16 0.0 0.0 0.00 1.13 1.13 99 1018.0
20260902021507 68 17 0.0 0.0 0.00 1.13 1.13 99 1018.2
20260902021002 68 16 0.0 0.0 0.00 1.13 1.13 99 1018.1
20260902020458 68 16 0.0 0.0 0.00 1.13 1.13 99 1018.2
20260902015954 69 16 0.0 0.0 0.00 1.13 1.13 99 1018.1
20260902015449 69 18 0.0 0.0 0.00 1.13 1.13 99 1018.2
20260902014944 69 30 1.0 1.0 0.00 1.13 1.13 99 1018.1
20260902014441 69 17 1.0 1.0 0.00 1.13 1.13 99 1018.3
20260902013940 69 17 0.0 1.0 0.00 1.13 1.13 99 1018.4
20260902013436 69 17 0.0 0.0 0.00 1.13 1.13 99 1018.7
20260902012931 69 16 0.0 0.0 0.00 1.13 1.13 99 1018.4
20260902012426 69 18 0.0 0.0 0.00 1.13 1.13 99 1018.5
20260902011922 69 23 0.0 0.0 0.00 1.13 1.13 99 1018.3
20260902011417 69 4 0.0 0.0 0.00 1.13 1.13 99 1018.4
20260902010916 69 18 0.0 0.0 0.00 1.13 1.13 99 1018.1
20260902010411 69 20 0.0 0.0 0.00 1.13 1.13 99 1018.2
20260902005910 69 18 0.0 0.0 0.00 1.13 1.13 99 1018.2
20260902005404 69 5 0.0 0.0 0.00 1.13 1.13 99 1018.1
20260902004900 69 18 0.0 0.0 0.00 1.13 1.13 99 1017.9
20260902004400 69 17 0.0 0.0 0.00 1.13 1.13 99 1017.5
20260902003855 69 16 0.0 0.0 0.00 1.13 1.13 99 1017.5
20260902003350 69 16 0.0 0.0 0.00 1.13 1.13 99 1017.5
20260902002846 69 26 0.0 0.0 0.00 1.13 1.13 99 1017.4
20260902002345 70 17 0.0 0.0 0.00 1.13 1.13 99 1017.1
20260902001840 70 16 0.0 0.0 0.00 1.13 1.13 99 1017.0
20260902001336 70 16 0.0 0.0 0.00 1.13 1.13 99 1016.9
20260902000830 70 16 0.0 0.0 0.00 1.13 1.13 99 1016.7
20260902000324 70 16 0.0 0.0 0.00 1.13 1.13 99 1017.3
20260901235820 70 18 0.0 0.0 0.00 1.13 1.13 99 1017.1
20260901235319 71 18 0.0 1.0 0.00 1.13 1.13 99 1017.3
20260901234814 70 16 0.0 0.0 0.00 1.13 1.13 99 1017.4
20260901234308 71 15 0.0 0.0 0.00 1.13 1.13 99 1017.0
20260901233804 71 14 0.0 0.0 0.00 1.13 1.13 99 1017.1
20260901233259 71 23 0.0 1.0 0.00 1.13 1.13 99 1017.3
20260901232754 72 16 0.0 0.0 0.00 1.13 1.13 99 1017.1
20260901232243 72 17 0.0 0.0 0.00 1.13 1.13 99 1017.1
20260901231740 72 16 0.0 1.0 0.00 1.13 1.13 99 1017.3
20260901231236 73 20 0.0 0.0 0.00 1.13 1.13 99 1016.8
20260901230732 73 17 0.0 0.0 0.00 1.13 1.13 99 1016.8
20260901230231 73 17 0.0 0.0 0.00 1.13 1.13 99 1016.9
20260901225726 73 17 0.0 0.0 0.00 1.13 1.13 99 1017.4
20260901225221 74 16 0.0 0.0 0.00 1.13 1.13 99 1017.6
20260901224717 74 17 0.0 0.0 0.00 1.13 1.13 99 1017.5
20260901224213 75 37 0.0 1.0 0.00 1.13 1.13 99 1017.6
20260901223709 75 26 0.0 0.0 0.00 1.13 1.13 98 1016.9
20260901223203 75 19 0.0 0.0 0.00 1.13 1.13 97 1017.1
20260901222659 75 56 1.0 1.0 0.00 1.13 1.13 98 1016.9
20260901222155 75 34 0.0 0.0 0.00 1.13 1.13 98 1016.8
20260901221651 76 19 0.0 0.0 0.00 1.13 1.13 97 1017.0
20260901221147 76 16 0.0 0.0 0.00 1.13 1.13 94 1016.9
20260901220646 77 7 1.0 1.0 0.00 1.13 1.13 92 1016.7
20260901220145 77 47 0.0 0.0 0.00 1.13 1.13 90 1016.7
20260901215644 78 42 1.0 2.0 0.00 1.13 1.13 90 1016.9
20260901215139 78 8 1.0 2.0 0.00 1.13 1.13 90 1016.6
20260901214637 78 16 0.0 0.0 0.00 1.13 1.13 89 1016.7
20260901214136 78 9 0.0 0.0 0.00 1.13 1.13 89 1016.9
20260901213631 78 28 2.0 3.0 0.00 1.13 1.13 92 1016.7
20260901213126 78 189 1.0 2.0 0.00 1.13 1.13 91 1016.8
20260901212626 78 3 0.0 0.0 0.00 1.13 1.13 91 1016.5
20260901212122 78 18 0.0 1.0 0.00 1.13 1.13 90 1016.6
20260901211616 78 341 1.0 1.0 0.00 1.13 1.13 92 1016.8
20260901211113 78 36 0.0 1.0 0.00 1.13 1.13 90 1016.5
20260901210608 78 358 1.0 1.0 0.00 1.13 1.13 91 1016.4
20260901210104 78 19 1.0 1.0 0.00 1.13 1.13 92 1016.2
20260901205559 78 12 0.0 0.0 0.00 1.13 1.13 93 1016.5
20260901205054 77 41 0.0 0.0 0.00 1.13 1.13 92 1016.5
20260901204550 78 31 0.0 1.0 0.00 1.13 1.13 93 1016.6
20260901204045 77 15 1.0 2.0 0.00 1.13 1.13 92 1016.7
20260901203539 78 2 2.0 2.0 0.00 1.13 1.13 92 1016.7
20260901203034 78 58 2.0 3.0 0.00 1.13 1.13 91 1016.7
20260901202529 78 101 1.0 1.0 0.00 1.13 1.13 93 1016.9
20260901202025 77 4 1.0 1.0 0.00 1.13 1.13 94 1016.7
20260901201520 77 306 2.0 2.0 0.00 1.13 1.13 93 1016.9
20260901201014 78 238 2.0 2.0 0.00 1.13 1.13 93 1016.8
20260901200508 78 336 1.0 1.0 0.00 1.13 1.13 93 1016.6
20260901200008 77 4 0.0 0.0 0.00 1.13 1.13 96 1016.7
20260901195506 76 14 1.0 1.0 0.00 1.13 1.13 96 1016.6
20260901195006 76 308 2.0 2.0 0.00 1.13 1.13 97 1016.8
20260901194501 76 19 0.0 0.0 0.00 1.13 1.13 98 1016.7
20260901193956 76 42 0.0 1.0 0.00 1.13 1.13 99 1016.8
20260901193456 75 330 1.0 1.0 0.00 1.13 1.13 99 1016.9
20260901192956 75 346 0.0 1.0 0.00 1.13 1.13 99 1017.1
20260901192452 75 277 1.0 1.0 0.00 1.13 1.13 99 1016.9
20260901191948 74 9 0.0 0.0 0.00 1.13 1.13 99 1017.1
20260901191443 74 7 0.0 1.0 0.00 1.13 1.13 99 1016.8
20260901190939 74 354 0.0 0.0 0.00 1.13 1.13 99 1016.7
20260901190434 74 3 1.0 1.0 0.00 1.13 1.13 99 1016.7
20260901185932 74 33 0.0 0.0 0.00 1.13 1.13 99 1016.7
20260901185432 73 19 0.0 0.0 0.00 1.13 1.13 99 1016.7
20260901184926 73 20 0.0 0.0 0.00 1.13 1.13 99 1017.0
20260901184422 73 353 1.0 1.0 0.00 1.13 1.13 99 1016.7
20260901183917 73 292 1.0 1.0 0.00 1.13 1.13 99 1016.9
20260901183416 74 355 0.0 0.0 0.00 1.13 1.13 99 1016.8
20260901182912 73 59 1.0 1.0 0.00 1.13 1.13 99 1016.8
20260901182407 73 10 0.0 0.0 0.00 1.13 1.13 99 1016.8
20260901181902 73 4 0.0 0.0 0.00 1.13 1.13 99 1016.9
20260901181357 72 1 0.0 1.0 0.00 1.13 1.13 99 1016.8
20260901180856 72 16 0.0 0.0 0.00 1.13 1.13 99 1016.7
20260901180355 72 348 0.0 0.0 0.00 1.13 1.13 99 1016.6
20260901175853 0 0.0 0.0 0.00 0.00 0.00 1016.6
20260901175348 0 0.0 0.0 0.00 0.00 0.00 1016.9
20260901174844 0 0.0 0.0 0.00 0.00 0.00 1016.5
20260901174339 0 0.0 0.0 0.00 0.00 0.00 1016.6
20260901173835 0 0.0 0.0 0.00 0.00 0.00 1016.6
20260901173329 0 0.0 0.0 0.00 0.00 0.00 1016.9
20260901172826 0 0.0 0.0 0.00 0.00 0.00 1016.8
20260901172325 0 0.0 0.0 0.00 0.00 0.00 1016.5
20260901171823 0 0.0 0.0 0.00 0.00 0.00 1016.6
20260901171323 0 0.0 0.0 0.00 0.00 0.00 1016.6
20260901170822 0 0.0 0.0 0.00 0.00 0.00 1016.5
20260901170317 0 0.0 0.0 0.00 0.00 0.00 1016.4
20260901165816 71 34 0.0 1.0 0.00 1.13 1.13 99 1016.8
20260901165310 71 34 0.0 1.0 0.00 1.13 1.13 99 1016.8
20260901164807 71 34 0.0 1.0 0.00 1.13 1.13 99 1016.9
20260901164302 0 0.0 0.0 0.00 0.00 0.00 1017.0
20260901163757 0 0.0 0.0 0.00 0.00 0.00 1016.9
20260901163257 0 0.0 0.0 0.00 0.00 0.00 1016.9
20260901162752 0 0.0 0.0 0.00 0.00 0.00 1017.1
20260901162251 0 0.0 0.0 0.00 0.00 0.00 1017.4
20260901161750 0 0.0 0.0 0.00 0.00 0.00 1017.0
20260901161245 69 12 0.0 0.0 0.00 1.13 1.13 99 1017.3
20260901160741 69 12 0.0 0.0 0.00 1.13 1.13 99 1017.3
20260901160237 69 17 0.0 0.0 0.00 1.13 1.13 99 1017.5
20260901155736 0 0.0 0.0 0.00 0.00 0.00 1017.5
20260901155230 0 0.0 0.0 0.00 0.00 0.00 1017.6
20260901154726 0 0.0 0.0 0.00 0.00 0.00 1017.7
20260901154221 0 0.0 0.0 0.00 0.00 0.00 1017.8
20260901153716 0 0.0 0.0 0.00 0.00 0.00 1017.6
20260901153215 67 19 0.0 0.0 0.00 1.13 1.13 99 1017.5
20260901152710 67 19 0.0 0.0 0.00 1.13 1.13 99 1017.7
20260901152208 67 19 0.0 0.0 0.00 1.13 1.13 99 1017.4
20260901151704 67 39 1.0 1.0 0.00 1.13 1.13 99 1017.6
20260901151203 67 31 0.0 1.0 0.19 1.13 1.13 99 1017.8
20260901150703 67 3 0.0 0.0 0.59 1.13 1.13 99 1018.0
20260901150201 67 44 1.0 2.0 1.44 1.10 1.10 99 1017.7
20260901145659 67 17 0.0 0.0 3.12 1.05 1.05 99 1017.9
20260901145154 68 146 2.0 2.0 1.84 0.84 0.84 99 1018.3
20260901144649 0 0.0 0.0 0.00 0.00 0.00 1018.2
20260901144144 0 0.0 0.0 0.00 0.00 0.00 1018.0
20260901143639 0 0.0 0.0 0.00 0.00 0.00 1017.7
20260901143136 0 0.0 0.0 0.00 0.00 0.00 1017.0
20260901142632 0 0.0 0.0 0.00 0.00 0.00 1017.1
20260901142131 0 0.0 0.0 0.00 0.00 0.00 1017.3
20260901141626 0 0.0 0.0 0.00 0.00 0.00 1017.6
20260901141120 67 33 0.0 1.0 0.00 0.53 0.53 99 1017.8
20260901140620 67 33 0.0 1.0 1.82 0.53 0.53 99 1017.6
20260901140119 67 33 0.0 1.0 1.82 0.53 0.53 99 1017.5
20260901135619 0 0.0 0.0 0.00 0.00 0.00 1018.0
20260901135114 67 69 1.0 1.0 1.30 0.23 0.23 99 1018.2
20260901134610 67 69 1.0 1.0 1.30 0.23 0.23 99 1018.3
20260901134104 0 0.0 0.0 0.00 0.00 0.00 1018.4
20260901133603 0 0.0 0.0 0.00 0.00 0.00 1017.9
20260901133102 0 0.0 0.0 0.00 0.00 0.00 1018.0
20260901132556 0 0.0 0.0 0.00 0.00 0.00 1017.8
20260901132050 0 0.0 0.0 0.00 0.00 0.00 1018.0
20260901131544 0 0.0 0.0 0.00 0.00 0.00 1018.1
20260901131035 68 72 1.0 2.0 0.00 0.01 0.01 99 1017.7
20260901130534 68 72 1.0 2.0 0.00 0.01 0.01 99 1017.7
20260901130032 0 0.0 0.0 0.00 0.00 0.00 1018.4
20260901125526 0 0.0 0.0 0.00 0.00 0.00 1018.3
20260901125021 0 0.0 0.0 0.00 0.00 0.00 1018.1
20260901124516 0 0.0 0.0 0.00 0.00 0.00 1017.5
20260901124016 0 0.0 0.0 0.00 0.00 0.00 1017.5
20260901123510 0 0.0 0.0 0.00 0.00 0.00 1017.7
20260901123009 0 0.0 0.0 0.00 0.00 0.00 1017.9
20260901122503 0 0.0 0.0 0.00 0.00 0.00 1017.6
20260901122002 0 0.0 0.0 0.00 0.00 0.00 1017.6
20260901121457 0 0.0 0.0 0.00 0.00 0.00 1017.7
20260901120952 0 0.0 0.0 0.00 0.00 0.00 1017.8
20260901120447 0 0.0 0.0 0.00 0.00 0.00 1017.8
20260901115943 0 0.0 0.0 0.00 0.00 0.00 1017.5
20260901115443 0 0.0 0.0 0.00 0.00 0.00 1017.5
20260901114940 0 0.0 0.0 0.00 0.00 0.00 1017.9
20260901114435 0 0.0 0.0 0.00 0.00 0.00 1017.5
20260901113933 0 0.0 0.0 0.00 0.00 0.00 1017.6
20260901113432 0 0.0 0.0 0.00 0.00 0.00 1017.5
20260901112928 0 0.0 0.0 0.00 0.00 0.00 1017.6
20260901112423 0 0.0 0.0 0.00 0.00 0.00 1017.6
20260901111918 0 0.0 0.0 0.00 0.00 0.00 1017.6
20260901111415 0 0.0 0.0 0.00 0.00 0.00 1017.5
20260901110914 0 0.0 0.0 0.00 0.00 0.00 1017.7
20260901110410 66 13 0.0 0.0 0.00 0.01 0.01 99 1017.5
20260901105906 66 13 0.0 0.0 0.00 0.01 0.01 99 1017.6
20260901105401 66 12 0.0 0.0 0.00 0.01 0.01 99 1017.6
20260901104858 66 10 0.0 0.0 0.00 0.01 0.01 99 1017.5
20260901104352 66 29 0.0 0.0 0.00 0.01 0.01 99 1017.6
20260901103848 66 29 0.0 0.0 0.00 0.01 0.01 99 1017.5
20260901103343 0 0.0 0.0 0.00 0.00 0.00 1017.7
20260901102837 0 0.0 0.0 0.00 0.00 0.00 1017.8
20260901102331 0 0.0 0.0 0.00 0.00 0.00 1017.6
20260901101827 66 20 0.0 0.0 0.00 0.01 0.01 99 1017.4
20260901101326 66 20 0.0 0.0 0.00 0.01 0.01 99 1017.4
20260901100820 66 20 0.0 0.0 0.00 0.01 0.01 99 1017.7
20260901100315 66 29 0.0 0.0 0.00 0.01 0.01 99 1017.3
20260901095814 66 16 0.0 0.0 0.00 0.01 0.01 99 1017.6
20260901095312 66 13 0.0 0.0 0.00 0.01 0.01 99 1017.7
20260901094806 66 3 0.0 0.0 0.00 0.01 0.01 99 1017.5
20260901094301 66 29 0.0 0.0 0.00 0.01 0.01 99 1017.6
20260901093756 66 13 0.0 0.0 0.00 0.01 0.01 99 1017.9
20260901093255 66 22 0.0 0.0 0.00 0.01 0.01 99 1017.7
20260901092751 67 16 0.0 0.0 0.00 0.01 0.01 99 1018.0
20260901092247 66 25 0.0 0.0 0.00 0.01 0.01 99 1018.0
20260901091742 67 18 0.0 0.0 0.00 0.01 0.01 99 1018.0
20260901091237 67 11 0.0 0.0 0.07 0.01 0.01 99 1017.9
20260901090732 67 17 0.0 0.0 0.07 0.01 0.01 99 1017.9
20260901090228 67 17 0.0 0.0 0.00 0.00 0.00 99 1018.0
20260901085724 67 17 0.0 0.0 0.00 0.00 0.00 99 1017.9
20260901085218 67 13 0.0 0.0 0.00 0.00 0.00 99 1017.8
20260901084715 67 11 0.0 0.0 0.00 0.00 0.00 99 1017.8
20260901084211 67 3 0.0 0.0 0.00 0.00 0.00 99 1017.8
20260901083711 66 6 0.0 0.0 0.00 0.00 0.00 99 1018.1
20260901083210 66 12 0.0 0.0 0.00 0.00 0.00 99 1018.1
20260901082709 66 13 0.0 0.0 0.00 0.00 0.00 99 1017.8
20260901082205 66 11 0.0 0.0 0.00 0.00 0.00 99 1018.1
20260901081700 66 18 0.0 0.0 0.00 0.00 0.00 99 1018.2
20260901081159 66 6 0.0 0.0 0.00 0.00 0.00 99 1018.1
20260901080654 66 14 0.0 0.0 0.00 0.00 0.00 99 1018.1
20260901080153 66 14 0.0 0.0 0.00 0.00 0.00 99 1018.4
20260901075648 66 18 0.0 0.0 0.00 0.00 0.00 99 1018.1
20260901075143 66 16 0.0 0.0 0.00 0.00 0.00 99 1018.3
20260901074643 66 21 0.0 0.0 0.00 0.00 0.00 99 1018.2
20260901074138 66 17 0.0 0.0 0.00 0.00 0.00 99 1018.3
20260901073634 66 15 0.0 0.0 0.00 0.00 0.00 99 1018.1
20260901073130 66 10 0.0 0.0 0.00 0.00 0.00 99 1018.2
20260901072625 66 8 0.0 0.0 0.00 0.00 0.00 99 1018.1
20260901072119 66 18 0.0 0.0 0.00 0.00 0.00 99 1018.5
20260901071613 66 20 0.0 0.0 0.00 0.00 0.00 99 1018.1
20260901071112 66 18 0.0 0.0 0.00 0.00 0.00 99 1018.5
20260901070607 66 17 0.0 0.0 0.00 0.00 0.00 99 1018.3
20260901065556 66 18 0.0 0.0 0.00 0.00 0.00 99 1018.3
20260901065050 66 17 0.0 0.0 0.00 0.00 0.00 99 1018.3
20260901064548 66 19 0.0 0.0 0.00 0.00 0.00 99 1018.4
20260901064044 66 20 0.0 0.0 0.00 0.00 0.00 99 1018.5
20260901063541 66 24 0.0 0.0 0.00 0.00 0.00 99 1018.7
20260901063036 67 19 0.0 0.0 0.00 0.00 0.00 99 1018.7
20260901062532 66 12 0.0 0.0 0.00 0.00 0.00 99 1018.6